This is the latest recevied weather packets stored in our database for station/object HP3ICC-23. If no packets are shown the sender has not sent any weather packets the latest 10 day(s).
| Time | Temp. | Humidity | Pressure | Rain* | Wind** | Luminosity | Snow |
|---|---|---|---|---|---|---|---|
| 1777427979 | 13.89° C | 77% | 1014 hPa | 0 mm | - | - | - |
| 1777427919 | 13.89° C | 77% | 1014 hPa | 0 mm | - | - | - |
| 1777426779 | 14.44° C | 82% | 1014 hPa | 0 mm | - | - | - |
| 1777426719 | 14.44° C | 82% | 1014 hPa | 0 mm | - | - | - |
| 1777425579 | 13.33° C | 68% | 1012 hPa | 0 mm | - | - | - |
| 1777425518 | 13.33° C | 68% | 1012 hPa | 0 mm | - | - | - |
| 1777424378 | 13.89° C | 68% | 1013 hPa | 0 mm | - | - | - |
| 1777424318 | 13.89° C | 68% | 1013 hPa | 0 mm | - | - | - |
| 1777423177 | 14.44° C | 68% | 1013 hPa | 0 mm | - | - | - |
| 1777423117 | 14.44° C | 68% | 1013 hPa | 0 mm | - | - | - |
| 1777421977 | 15° C | 68% | 1010 hPa | 0 mm | - | - | - |
| 1777421917 | 15° C | 68% | 1010 hPa | 0 mm | - | - | - |
| 1777420777 | 15.56° C | 68% | 1012 hPa | 0 mm | - | - | - |
| 1777420716 | 15.56° C | 68% | 1012 hPa | 0 mm | - | - | - |
| 1777419576 | 16.11° C | 68% | 1012 hPa | 0 mm | - | - | - |
| 1777419515 | 16.11° C | 68% | 1012 hPa | 0 mm | - | - | - |
| 1777418375 | 16.67° C | 68% | 1012 hPa | 0 mm | - | - | - |
| 1777418315 | 16.67° C | 68% | 1012 hPa | 0 mm | - | - | - |
| 1777417175 | 17.22° C | 68% | 1012 hPa | 0 mm | - | - | - |
| 1777417114 | 17.22° C | 68% | 1012 hPa | 0 mm | - | - | - |
| 1777415974 | 17.78° C | 68% | 1011 hPa | 0 mm | - | - | - |
| 1777415914 | 17.78° C | 68% | 1011 hPa | 0 mm | - | - | - |
| 1777414774 | 18.33° C | 69% | 1011 hPa | 0 mm | - | - | - |
| 1777414713 | 18.33° C | 69% | 1011 hPa | 0 mm | - | - | - |
| 1777413573 | 17.78° C | 69% | 1011 hPa | 0 mm | - | - | - |
* Rain latest hour (hover to see other rain measurements)
** Current wind speed in m/s (hover to see current wind gust speed)